{"data":{"norad_id":66012,"intl_designator":"2025-232H","name":"STARLINK-35293","alt_names":[],"object_type":"PAYLOAD","status":"ACTIVE","operator":null,"country":"US","launch_date":"2025-10-16","launch_site_code":"AFETR","launch_vehicle":null,"mission":null,"orbit_class":"UNKNOWN","rcs_meters":null,"size_class":null,"mass_kg":null,"dimensions":null,"purposes":["comms"],"wikipedia_slug":null,"has_3d_model":false,"image_url":null,"decayed_at":null,"tle_current":{"epoch":"2026-09-20T13:24:21.035520Z","epoch_age_seconds":98078,"freshness":"FRESH","line1":"1 66012U 25232H   26263.55857680  .00014685  00000+0  44489-3 0  9997","line2":"2 66012  53.1591 277.1510 0001048  72.2677 287.8440 15.34400842 53291","mean_motion":15.34400842,"eccentricity":0.0001048,"inclination_deg":53.1591,"raan_deg":277.151,"arg_perigee_deg":72.2677,"mean_anomaly_deg":287.844,"bstar":0.00044489,"rev_number":5329,"period_min":93.847706582528,"perigee_km":461.9838178119,"apogee_km":463.41765740171,"semimajor_km":6840.8377376068,"source":"CELESTRAK","updated_at":"2026-09-21T09:00:35.769516Z"}}}